Regional Weather Roundup
Issued by NWS Northern Indiana

Home | Current Version | Previous Version | Graphics & Text | Print | Product List | Glossary On
Versions: 1 2 3 4 5 6 7 8 9 10 11 12 13 14 15 16 17 18 19 20 21 22 23 24 25 26 27 28 29 30 31 32 33 34 35 36 37 38 39 40 41 42 43 44 45 46 47 48 49 50
000
ASUS43 KIWX 300100
RWRIWX

KIWX WEATHER ROUNDUP
NATIONAL WEATHER SERVICE NORTHERN INDIANA
900 PM EDT WED JUL 29 2015

NOTE: "FAIR" INDICATES FEW OR NO CLOUDS BELOW 12,000 FEET WITH NO
SIGNIFICANT WEATHER AND/OR OBSTRUCTIONS TO VISIBILITY.

* THESE STATIONS ARE NOT UNDER NWS QUALITY CONTROL. THEY ALSO MAY NOT
  REPORT WEATHER SUCH AS PRECIPITATION OR FOG.

INZ001>027-300200-
NORTHERN INDIANA

CITY           SKY/WX    TMP DP  RH WIND       PRES   REMARKS
GARY*          PTCLDY    79  52  38 W13       29.98R
SOUTH BEND     CLEAR     75  59  57 W6        29.98R
GOSHEN         CLEAR     70  59  68 W6        29.97R
ANGOLA*        CLEAR     75  70  83 NW6       29.96S
FORT WAYNE     PTCLDY    79  62  56 NW7       29.97R
PERU/GRISSOM   PTCLDY    80  65  58 NW12      29.97R

$$
INZ028>050-300200-
CENTRAL INDIANA

CITY           SKY/WX    TMP DP  RH WIND       PRES   REMARKS
LAFAYETTE      MOCLDY    74  59  59 NW8       29.99R
KOKOMO*        PTCLDY    81  64  57 NW14      29.97R
MUNCIE*        MOCLDY    81  75  82 NW7       29.97R
INDIANAPOLIS   MOCLDY    82  66  58 NW16G23   29.98R

$$
MIZ043>046-050>051-056>058-064>065-071>073-077>080-300200-
SOUTHWEST LOWER MICHIGAN

CITY           SKY/WX    TMP DP  RH WIND       PRES   REMARKS
BATTLE CREEK   CLEAR     74  59  59 W6        29.96R
BENTON HARBOR  CLEAR     76  59  55 W10       29.96R
COLDWATER*     CLEAR     74  57  55 W7        29.96S
HILLSDALE*     CLEAR     76  59  56 NW10      29.96S
HOLLAND        CLEAR     76  60  57 W9        29.94R
GRAND RAPIDS   PTCLDY    78  54  43 W13       29.93R
KALAMAZOO      CLEAR     76  58  53 W6        29.96R
STURGIS*       CLEAR     75  61  60 CALM      29.96S
THREE RIVERS*  FAIR      74  60  61 W3        29.96S

$$
OHZ001>008-015>018-024>025-300200-
NORTHWEST OHIO

CITY           SKY/WX    TMP DP  RH WIND       PRES   REMARKS
DEFIANCE       CLEAR     80  69  69 NW8       29.94R
FINDLAY        MOCLDY    74  71  91 S3        29.92F
TOLEDO EXPRESS PTCLDY    78  74  87 SW7       29.91R
TOLEDO METCALF MOCLDY    78  73  84 SW3       29.91S
LIMA           MOCLDY    78  70  76 SW3       29.94F

$$
AND FOR LAKE MICHIGAN COASTAL AND OPEN LAKE BUOY OBSERVATIONS

STATION/POSITION TEMP    WIND        PRES    VSBY  WAVE
                 AIR SEA DIR/SP/G                  HT/PER
                 (F)     (DEG/KT/KT) (MB)    (MI)  (FT/S)
CALUMET HARBOR    83                   N/A
MICHIGAN CITY     78     240/  5/  5   N/A
BURNS HARBOR      80     280/  9/ 11 1014.9S
SAINT JOSEPH      82     250/  5/  7 1014.6F
4 MI NW BRIDGMAN  78 76  350/ 12/ 12   N/A           1/ 2
MICHIGAN CITY     79 77  310/  6/  8   N/A           1

$$
&&



USA.gov is the U.S. government's official web portal to all federal, state and local government web resources and services.